Regional Weather Roundup
Issued by NWS Raleigh/Durham, NC

Home | Current Version | Previous Version | Text Only | Print | Product List | Glossary On
Versions: 1 2 3 4 5 6 7 8 9 10 11 12 13 14 15 16 17 18 19 20 21 22 23 24 25 26 27 28 29 30 31 32 33 34 35 36 37 38 39 40 41 42 43 44 45 46 47 48 49 50
000
ASUS42 KRAH 262010
RWRRAH
NORTH CAROLINA WEATHER ROUNDUP
NATIONAL WEATHER SERVICE RALEIGH NC
400 PM EDT SAT JUL 26 2014

NOTE: "FAIR" INDICATES FEW OR NO CLOUDS BELOW 12,000 FEET WITH NO
SIGNIFICANT WEATHER AND/OR OBSTRUCTIONS TO VISIBILITY.

NCZ001-053-055-056-065-067-262100-
WESTERN NORTH CAROLINA

CITY           SKY/WX    TMP DP  RH WIND       PRES   REMARKS
ASHEVILLE      MOSUNNY   84  62  47 SW3       30.07F
JEFFERSON      PTSUNNY   80  48  33 S3        30.12F
MORGANTON      PTSUNNY   86  59  39 W3        30.06F
HICKORY        PTSUNNY   87  61  41 SW6       30.01F
RUTHERFORDTON  MOSUNNY   86  64  48 S5        30.02F
MOUNT AIRY     MOSUNNY   88  62  42 SW6       30.00F
BOONE          MOSUNNY   80  53  39 CALM      30.12F
$$

NCZ021-022-025-041-071-084-088-262100-
CENTRAL NORTH CAROLINA

CITY           SKY/WX    TMP DP  RH WIND       PRES   REMARKS
CHARLOTTE      PTSUNNY   87  64  46 SW7       30.00F
GREENSBORO     PTSUNNY   88  64  44 SW9       29.99F
WINSTON-SALEM  PTSUNNY   87  64  46 S6        30.00F
RALEIGH-DURHAM MOSUNNY   89  70  53 VRB6      29.98F
FORT BRAGG     SUNNY     89  70  54 VRB3      29.97F
FAYETTEVILLE   MOSUNNY   93  66  40 SE7       29.96F HX  96
BURLINGTON     MOSUNNY   87  68  52 S10       29.98F
LAURINBURG     MOSUNNY   89  69  51 VRB3      29.98F
$$

NCZ011-015-027-028-043-044-047-080-103-262100-
NORTHEASTERN NORTH CAROLINA

CITY           SKY/WX    TMP DP  RH WIND       PRES   REMARKS
ROCKY MT-WILSO MOSUNNY   89  69  51 S8        29.97F
GREENVILLE     MOSUNNY   90  70  51 CALM      29.98F HX  95
WASHINGTON     MOSUNNY   87  70  56 S6        29.97F
ELIZABETH CITY SUNNY     84  67  56 E10       29.97F
MANTEO         NOT AVBL
CAPE HATTERAS  SUNNY     87  71  58 SE9       29.98F
$$

NCZ078-087-090-091-093-098-101-262100-
SOUTHEASTERN NORTH CAROLINA

CITY           SKY/WX    TMP DP  RH WIND       PRES   REMARKS
LUMBERTON      MOSUNNY   89  68  49 VRB3      29.97F
GOLDSBORO      SUNNY     89  73  59 SE6       29.95F HX  97
KINSTON        MOSUNNY   90  68  48 CALM      29.98F
KENANSVILLE    MOSUNNY   88  66  48 CALM      29.98F
NEW BERN       MOSUNNY   89  73  59 SE6       29.98F HX  97
CHERRY POINT   PTSUNNY   85  73  67 E7        29.98F
BEAUFORT       SUNNY     85  73  67 E6        29.99F
JACKSONVILLE   PTSUNNY   88  75  65 S9        29.97F HX  97
WILMINGTON     SUNNY     89  76  65 SE10      29.97F HX 100
$$



USA.gov is the U.S. government's official web portal to all federal, state and local government web resources and services.